Hourly Data Report for August 18, 2000

SHERBROOKE A
QUEBEC

45°26'00.000" N
71°41'00.000" W
241.40 m
7028124
71610
YSC

Download Data

Hourly Data (August 2000)
Hourly Data Report for August 18, 2000
TIME
LST
Temp Definition
°C
Dew Point Definition
°C
Rel Hum Definition
%
Precip. Amount Definition
mm

Wind Dir Definition
10's deg

Wind Spd Definition
km/h
Visibility Definition
km
Stn Press Definition
kPa
Hmdx Definition


Wind Chill Definition


Weather Definition


00:00 10.4 9.0 91   23 7 15.0 98.62      
01:00 9.3 8.4 94   22 6 15.0 98.62      
02:00 8.1 7.7 97   21 4 15.0 98.62      
03:00 5.8 5.4 97     0 9.7 98.62      
04:00 4.7 4.2 97   14 4 15.0 98.65      
05:00 4.4 4.1 98     0 2.1 98.69      
06:00 8.0 7.6 97   7 4 15.0 98.72      
07:00 10.5 8.9 90     0 24.1 98.75     Mainly Clear
08:00 13.8 10.3 79   20 6 24.1 98.75     Mainly Clear
09:00 15.9 10.5 70   23 9 24.1 98.75     Mainly Clear
10:00 17.5 10.9 65   29 9 24.1 98.69     Mainly Clear
11:00 18.2 9.0 55   27 11 24.1 98.65     Mostly Cloudy
12:00 17.5 9.8 61   28 11 24.1 98.59     Mostly Cloudy
13:00 19.3 9.8 54   26 9 24.1 98.55     Mostly Cloudy
14:00 18.7 8.7 52   26 6 24.1 98.52     Mostly Cloudy
15:00 19.3 8.2 49     0 24.1 98.45     Mostly Cloudy
16:00 19.4 9.7 53   32 6 24.1 98.45     Mostly Cloudy
17:00 18.8 9.8 56   30 6 15.0 98.45      
18:00 17.2 10.8 66   31 6 15.0 98.45      
19:00 15.6 11.0 74   32 4 15.0 98.45      
20:00 13.6 11.6 88   12 4 15.0 98.49      
21:00 13.1 12.0 93     0 15.0 98.45      
22:00 13.1 12.3 95   10 4 15.0 98.45      
23:00 12.9 12.4 97     0 15.0 98.45     Rain

Notes on Data Quality.

Legend

  • E = Estimated
  • M = Missing
  • NA = Not Available*
  • [empty] = Indicates an unobserved value
Date modified: